Houlton, ME

4:12 PM EST on February 10, 2016 (GMT -0500)
Houlton International

Weather History for KHUL - June, 2012

Change the Weather History Date:

Tuesday, June 19, 2012

  Actual Average Record
Temperature  
Mean Temperature 59 °F 61 °F  
Max Temperature 69 °F 74 °F 92 °F (1995)
Min Temperature 49 °F 49 °F 32 °F (1956)
Degree Days  
Heating Degree Days 6 5  
Month to date heating degree days 157 135  
Since 1 June heating degree days 157 135  
Since 1 July heating degree days 8045 9142  
Cooling Degree Days 0 1  
Month to date cooling degree days 1 15  
Year to date cooling degree days 5 19  
Since 1 June cooling degree days 1 15  
Growing Degree Days 8 (Base 50)    
Moisture  
Dew Point 52 °F    
Average Humidity 82    
Maximum Humidity 100    
Minimum Humidity 63    
Precipitation  
Precipitation 0.00 in 0.12 in 1.51 in (1984)
Month to date precipitation 0.45 2.22  
Year to date precipitation 12.40 16.85  
Sea Level Pressure  
Sea Level Pressure 30.06 in    
Wind  
Wind Speed 7 mph (SSW)    
Max Wind Speed 15 mph    
Max Gust Speed 21 mph    
Visibility 8 miles    
Events      
T = Trace of Precipitation, MM = Missing Value Source: NWS Daily Summary

Daily Weather History Graph

Daily Weather History Graph

Search for Another Location

Airport or City:

Trip Planner

Search our weather history database for the weather conditions in past years. The results will help you decide how hot, cold, wet, or windy it might be!

Date:

Astronomy

Jun. 19, 2012 Rise Set
Actual Time 4:39 AM EDT 8:25 PM EDT
Civil Twilight 4:00 AM EDT 9:04 PM EDT
Nautical Twilight 3:08 AM EDT 9:56 PM EDT
Astronomical Twilight 1:54 AM EDT 11:10 PM EDT
Moon 4:43 AM EDT (6/19) 8:24 PM EDT (6/19)
Length of Visible Light 17h 03m
Length of Day
15h 46m
New Moon, 0% of the Moon is Illuminated
Jun 19
New Moon
Jun 26
First Quarter
Jul 3
Full
Jul 10
Last Quarter
Jul 19
New

Hourly Weather History & Observations

Time (EDT) Temp. Dew Point Humidity Pressure Visibility Wind Dir Wind Speed Gust Speed Precip Events Conditions
12:53 AM 53.1 °F 48.9 °F 86% 30.09 in 10.0 mi Calm Calm - N/A   Clear
1:53 AM 52.0 °F 48.0 °F 86% 30.10 in 10.0 mi SSW 5.8 mph - N/A   Clear
2:53 AM 50.0 °F 46.9 °F 89% 30.11 in 10.0 mi Calm Calm - N/A   Partly Cloudy
3:06 AM 50.0 °F 48.2 °F 94% 30.10 in 10.0 mi Variable 3.5 mph - N/A   Mostly Cloudy
3:42 AM 50.0 °F 48.2 °F 94% 30.11 in 9.0 mi SW 6.9 mph - N/A   Overcast
3:53 AM 50.0 °F 48.9 °F 96% 30.12 in 8.0 mi SSW 3.5 mph - N/A   Overcast
4:35 AM 48.2 °F 48.2 °F 100% 30.12 in 1.8 mi SSW 5.8 mph - N/A   Overcast
4:53 AM 48.9 °F 48.9 °F 100% 30.12 in 1.5 mi Calm Calm - N/A   Overcast
5:00 AM 48.2 °F 48.2 °F 100% 30.10 in 1.0 mi South 5.8 mph - N/A   Overcast
5:35 AM 50.0 °F 48.2 °F 94% 30.09 in 0.8 mi Calm Calm - N/A   Overcast
5:53 AM 50.0 °F 48.0 °F 93% 30.11 in 0.8 mi South 4.6 mph - N/A   Overcast
6:20 AM 50.0 °F 48.2 °F 94% 30.10 in 1.0 mi South 4.6 mph - N/A   Overcast
6:30 AM 50.0 °F 48.2 °F 94% 30.10 in 2.0 mi SW 6.9 mph - N/A   Overcast
6:41 AM 50.0 °F 48.2 °F 94% 30.10 in 3.0 mi SW 5.8 mph - N/A   Overcast
6:53 AM 50.0 °F 48.0 °F 93% 30.11 in 3.0 mi Variable 4.6 mph - N/A   Overcast
7:53 AM 51.1 °F 48.9 °F 92% 30.12 in 8.0 mi South 5.8 mph - N/A   Overcast
8:46 AM 51.8 °F 50.0 °F 94% 30.12 in 8.0 mi SW 6.9 mph - N/A   Overcast
8:53 AM 52.0 °F 50.0 °F 93% 30.13 in 7.0 mi SW 6.9 mph - N/A   Overcast
9:53 AM 54.0 °F 48.9 °F 83% 30.10 in 10.0 mi SSW 6.9 mph - N/A   Overcast
10:51 AM 55.4 °F 50.0 °F 82% 30.09 in 10.0 mi South 5.8 mph - N/A   Overcast
10:53 AM 55.9 °F 50.0 °F 80% 30.09 in 10.0 mi South 5.8 mph - N/A   Overcast
11:37 AM 59.0 °F 51.8 °F 77% 30.08 in 10.0 mi Variable 4.6 mph - N/A   Overcast
11:53 AM 59.0 °F 51.1 °F 75% 30.07 in 10.0 mi SSW 5.8 mph - N/A   Overcast
12:29 PM 62.6 °F 51.8 °F 68% 30.04 in 10.0 mi SSW 8.1 mph - N/A   Scattered Clouds
12:53 PM 64.0 °F 52.0 °F 65% 30.04 in 10.0 mi SW 11.5 mph - N/A   Partly Cloudy
1:53 PM 64.9 °F 53.1 °F 65% 30.03 in 10.0 mi SSW 12.7 mph - N/A   Partly Cloudy
2:53 PM 68.0 °F 55.0 °F 63% 30.02 in 10.0 mi WSW 13.8 mph 20.7 mph N/A   Clear
3:53 PM 66.0 °F 55.0 °F 68% 30.03 in 10.0 mi SW 11.5 mph 19.6 mph N/A   Scattered Clouds
4:06 PM 64.4 °F 55.4 °F 73% 30.01 in 10.0 mi SSW 9.2 mph 20.7 mph N/A   Mostly Cloudy
4:17 PM 66.2 °F 55.4 °F 68% 30.00 in 10.0 mi SSW 10.4 mph 18.4 mph N/A   Scattered Clouds
4:53 PM 68.0 °F 55.9 °F 65% 30.00 in 10.0 mi SSW 11.5 mph 18.4 mph N/A   Clear
5:53 PM 66.9 °F 55.9 °F 68% 29.98 in 10.0 mi SSW 6.9 mph - N/A   Clear
6:53 PM 68.0 °F 57.0 °F 68% 29.96 in 10.0 mi SSW 9.2 mph - N/A   Clear
7:53 PM 66.0 °F 57.0 °F 73% 29.95 in 10.0 mi South 5.8 mph - N/A   Partly Cloudy
8:53 PM 64.0 °F 57.0 °F 78% 29.94 in 10.0 mi SSW 3.5 mph - N/A   Clear
9:53 PM 64.0 °F 57.9 °F 80% 29.95 in 10.0 mi SSW 5.8 mph - N/A   Overcast
10:53 PM 64.0 °F 57.9 °F 80% 29.94 in 10.0 mi SW 9.2 mph - N/A   Overcast
11:53 PM 64.0 °F 57.9 °F 80% 29.93 in 10.0 mi SSW 9.2 mph - N/A   Overcast